Regional Weather Roundup
Issued by NWS Upton, NY

Current Version | Previous Version | Text Only | Print | Product List | Glossary Off
Versions: 1 2 3 4 5 6 7 8 9 10 11 12 13 14 15 16 17 18 19 20 21 22 23 24 25 26 27 28 29 30 31 32 33 34 35 36 37 38 39 40 41 42 43 44 45 46 47 48 49 50
568 ASUS41 KOKX 211705 RWROKX Regional Weather Roundup National Weather Service New York NY 1200 PM EST WED FEB 21 2018 Note: "FAIR" indicates few or no clouds below 12,000 feet with no significant weather and/or obstructions to visibility. NYZ071-072-176-178-NJZ106-104-211800- New York City Metro Area CITY SKY/WX TMP DP RH WIND PRES REMARKS Central Park FAIR 72 58 61 MISG 30.26F Bronx Bot Gard N/A 70 57 64 SW7 30.24F Bronx Lehman C N/A 70 57 64 SW9 N/A LaGuardia Arpt FAIR 70 58 65 SW13G21 30.24F Queens College N/A 68 59 73 SW9 N/A Kennedy Intl FAIR 61 54 77 S13 30.27F Breezy Point N/A 54 N/A N/A S5 N/A Brooklyn Coll N/A 68 59 73 SW7 N/A Staten Island N/A 70 59 68 SW14 N/A Newark/Liberty FAIR 74 59 59 SW14 30.24F Teterboro FAIR 73 58 59 SW15G22 30.22F $$ NYZ177-179-078>081-211800- Long Island New York CITY SKY/WX TMP DP RH WIND PRES REMARKS Jones Beach N/A 46 N/A N/A SW8 N/A Wantagh N/A 50 50 100 S8 N/A Hempstead N/A 63 57 82 SE8 30.29F Matinecock Pt N/A 59 N/A N/A SW12 N/A Farmingdale FAIR 60 54 80 S9 30.27F MacArthur/ISP FOG 52 52 100 SW14 30.27F VSB 1/4 Shirley CLOUDY 52 52 100 SW13 30.28F FOG Mt Sinai Harb N/A 61 N/A N/A S8 N/A Westhampton CLOUDY 50 50 100 SW10 30.29F FOG East Hampton CLOUDY 50 50 99 SW13 30.28F FOG Southold N/A 54 52 94 S10 N/A Montauk N/A 52 50 93 SW10G17 30.28F $$ NYZ052-065-067-211800- Hudson Valley CITY SKY/WX TMP DP RH WIND PRES REMARKS White Plains FAIR 69 58 67 VRB7 30.23F Larchmont Harb N/A 55 N/A N/A S13 N/A Croton On Huds N/A 66 N/A N/A SE6 N/A Somers N/A 68 57 68 S12 N/A Brewster N/A 68 55 64 SW3 N/A Newburgh MOSUNNY 68 59 73 W14G25 30.22F Montgomery FAIR 66 56 70 SW12G24 30.21F Otisville N/A 66 55 68 SW9 N/A Warwick N/A 70 57 64 W15 N/A Suffern N/A 72 57 60 SW6 N/A Poughkeepsie FAIR 69 55 60 SW12 30.19F Albany PTSUNNY 67 54 63 S17G23 30.12F $$ NJZ001-105-106-008-010-013-015-019>022-104-211800- New Jersey CITY SKY/WX TMP DP RH WIND PRES REMARKS Newark/Liberty FAIR 74 59 59 SW14 30.24F Teterboro FAIR 73 58 59 SW15G22 30.22F Caldwell FAIR 72 58 61 W12G18 30.24F Somerville FAIR 73 60 63 VRB7 30.24F Linden FAIR 72 58 62 W12 30.25F Perth Amboy N/A 68 N/A N/A SW17G23 N/A Sussex FAIR 66 58 75 SW9G24 30.24F Andover N/A 68 58 70 VRB6G17 30.25F Trenton FAIR 71 61 70 SW15G24 30.28F Millville PTSUNNY 71 61 70 SW12G26 30.34F Atlantic City PTSUNNY 71 62 73 SW13G26 30.33F Wrightstown FAIR 75 61 60 SW23 30.26F Toms River FAIR 75 62 64 SW17G25 30.29F Belmar FAIR 74 61 63 SW16 30.28F $$ PAZ047>061-062-071-211800- Eastern Pennsylvania CITY SKY/WX TMP DP RH WIND PRES REMARKS Philadelphia MOSUNNY 72 60 66 SW22G30 30.29F Allentown FAIR 71 58 63 W7 30.27F Scranton FAIR 72 55 55 SW13 30.22F $$ CTZ002-004>006-009-010-012-RIZ004-006-007-MAZ004-011-015-211800- Southern New England In CT CITY SKY/WX TMP DP RH WIND PRES REMARKS Bradley Intl PTSUNNY 70 57 63 S10 30.19F Hartford FAIR 66 57 72 S12G18 30.21F Danbury FAIR 68 57 68 SW9 30.23F Wtrbury/Oxford FAIR 64 58 80 SW8 30.24F Norwalk Harbor N/A 50 N/A N/A SW8 N/A Bridgeport CLOUDY 56 53 90 SW8 30.24F FOG Meriden PTSUNNY 62 55 77 S10 30.22F New Haven FOG 53 51 93 SW6 30.25F VSB 3/4 Chester FOG 57 57 100 SW8 30.24F VSB 1/4 Groton FOG 49 47 93 S5 30.26F VSB<1/4 Willimantic PTSUNNY 64 56 75 S12 30.22F In RI CITY SKY/WX TMP DP RH WIND PRES REMARKS Providence CLOUDY 62 58 86 SW15G25 30.23F Block Island LGT RAIN 46 46 100 SW17 30.28F VSB 1/4 Westerly FOG 50 50 100 SW5 30.27F VSB 1/2 In MA CITY SKY/WX TMP DP RH WIND PRES REMARKS Boston PTSUNNY 68 57 68 SW22 30.15F Worcester FAIR 59 55 87 SW17 30.19F Westfield FAIR 71 57 61 S14 30.16F Provincetown CLOUDY 46 45 96 SW18G25 30.21F FOG Nantucket FOG 47 47 100 SW15 30.30F VSB 1/4 $$ ANZ330-335-338-340-345-350-353-355-211800- Coastal Marine Observations STATION/POSITION TIME SKY/WX TEMP WIND PRES VSBY WAVE AIR SEA DIR/SP/G HT/PER (UTC) (F) (DEG/KT/KT) (MB) (MI) (FT/S) NY Harb Entrance NOT AVBL 20 S Fire Island 1650 46 42 220/ 14/ 16 1026.0 4/ 6 15 E Barnegat Li 1630 42 N/A 4/ 5 Hudson Canyon 1650 51 47 210/ 16/ 19 1027.7 4/ 5 Kings Point 1648 63 38 260/ 12/ 16 1025.1 Execution Rocks NOT AVBL Western LI Sound NOT AVBL Central LI Sound 1545 44 210/ 6/ 6 N/A 1 Robbins Reef 1648 68 240/ 17/ 19 1024.9 $$ >>>>>>>>>>>>>>>>>>>>>>>>>>>> KEY <<<<<<<<<<<<<<<<<<<<<<<<<<< > < > SKY/WX - Sky Condition/Present Weather < > TMP - Temperature in Fahrenheit < > DP - Dew Point in Fahrenheit < > RH - Relative Humidity in Percent < > WIND - Direction (from) and Speed in MPH < > PRES - Mean Sea Level Pressure (inches of Hg) < > WCI - Wind Chill Index < > VSB - Visibility in Miles < > HX - Heat Index < > TC - Temperature in Celsius < > VRB - Varibale Wind Direction < > < >>>>>>>>>>>>>>>>>>>>>>>>>>>> KEY <<<<<<<<<<<<<<<<<<<<<<<<<<<

USA.gov is the U.S. government's official web portal to all federal, state and local government web resources and services.